sat.trackr.live / text

‹ back to catalog

COSMOS 2607

NORAD 67681 · 2026-023H

PAYLOAD ACTIVE UNKNOWN

§ Identity

Operator
Country
CIS
Launch date
2026-02-05
Launch site
PLMSC
Launch vehicle
Mass (kg)
RCS (m²)

External: N2YO · Heavens-Above · Gunter

§ Orbital elements

Epoch: 2026-09-20T14:12:32.795136Z

Period
94.31 min
Inclination
96.6206°
Eccentricity
0.0021950
Mean motion
15.26863321 rev/d
Perigee alt
470.1 km
Apogee alt
500.3 km
Semi-major
6,863.3 km
B*
2.1409e-4
RAAN
316.8644°
Arg perigee
136.8943°
Mean anomaly
223.4021°
Rev number
3,454

§ Raw data

COSMOS 26071 67681U 26023H   26263.59204624  .00005627  00000+0  21409-3 0  99902 67681  96.6206 316.8644 0021950 136.8943 223.4021 15.26863321 34549

JSON: /api/v1/satellites/67681 · /tle

For live sub-satellite position, see the globe view (requires WebGL).

§ Visibility from observer

Set your observer location to see the next 7 days of passes ≥ 10°. The values pass through the URL so the page stays shareable.

No JS? Fill the form by hand. The geolocation button needs JavaScript.